THORAD AGENA D DEB, 4989

Orbit data source: Space-Track

THORAD AGENA D DEB, 4989 is space debris in SSO originally from a launch on Wed, 08 Apr 1970 UTC launched from the Air Force Western Test Range (AFWTR). Debris objects in space refer to the collection of defunct objects orbiting the Earth. Examples of debris include non-operational satellites, rocket bodies, and fragments generated from explosions, collisions, or faulty payload assembly.

Loading next visibility...
Identifier
4989, 1970-025HK
Orbit
SSO
Country
Flag of USUS
Related business
Manufacturer
Unknown
Mission
Spacecraft
Bus & Motor
Unknown
Mass
Unknown
Launch date (UTC)
1970-04-08 (56 years ago)
Launch vehicle
Unknown
Launch site
Air Force Western Test Range (AFWTR)
Object type
Payload
Rocket body
Debris
Shape & HBR
Unknown shape, 0.1 m
Radar Cross Section
Small (<0.1 m²)

Expand to show TLE details & history
Last TLE update: 1 day ago

TLE from 1 day ago
0 THORAD AGENA D DEB
1 04989U 70025HK  25310.58259135  .00002960  00000-0  31013-2 0  9990
2 04989  99.6289 176.5155 0126136  33.6903 356.2371 13.72471778730978
Epoch: 2025-11-06T13:58Z
TLE epoch observation values (Epoch: 2025-11-06T13:58:55.892Z)
Latitude
29.41895°
Longitude
-84.71715°
Altitude
901.528 km
Speed
7.45 km/s
True Right ascension
11h 24m 13s
True Declination
29° 16' 30"
Sunlit
Object was in daylight at epoch
Visualization orbit readout
Latitude
Unknown
Longitude
Unknown
Altitude
Unknown
Speed
Unknown
Apparent Right ascension
Unknown
Apparent Declination
Unknown
Sunlit
N/A
Visualization observer readout
Local Sidereal Time
18:02:25
Azimuth
Unknown
Elevation
Unknown
Doppler factor
Unknown
Orbital elements
Apogee altitude
1,080.891 km
Perigee altitude
895.064 km
Semi-major axis
7,366.114 km
Eccentricity
0.01261
Inclination
99.6289°
RAAN
176.5155°
Arg. of periapsis
33.6903°
True anomaly
356.14073°
Mean anomaly
356.2371°
Eccentric anomaly
356.18907°
Mean motion
3.43309 °/min
Orbital period
104.86 mins
BSTAR
0.0031013
Loading maneuver chart data...
Computing Atmospheric mass density...

Documentation

Showing up to 5 results
|